Terug naar catalogus

USA 236

ActiefMilitairGEO
NORAD 38466·PAYLOAD·🇺🇸 United States

Gelanceerd Jun 20, 2012 vanaf Cape Canaveral Space Force Station

Loading…

TLE

VersSource: Mike McCants

Epoch: Sep 15, 2026, 06:57 UTC

1 38466U 12033A   26258.29013582  .00000000  00000-0  00000-0 0    02
2 38466   8.1586  75.0743 0006111 203.8100 156.1731  1.00270000  5746

Volg USA 236 in realtime met AllMySat

Download on the App Store